Starlink 31341

operational
NORAD ID: 59155 Int'l Des: 2024-044 Owner: SPXS Country: US Constellation: starlink
LEOCIRCULAR

About Starlink 31341

Description loading...

Live Position

Loading 3D Globe...

Upcoming Passes

Altitude History

Altitude vs Time

uPlot chart will show altitude changes over time

Two-Line Element Set

1 59155U 24044D 25348.10621200 .00000461 00000-0 26271-4 0 9996
2 59155 43.0001 234.0634 0001211 279.7952 80.2762 15.27595719100437
Epoch: Dec 14, 2025 • Age: 38 hours

Current Status

Altitude 482.8 km
Velocity 7.63 km/s
Sub-Earth Point 3.13°N, 62.45°E
Launch Date Mar 4, 2024
Age 1.7 years
Type internet

Technical Details

Classification Payload
Mass 730.00 kg
Dry Mass 700.00 kg
Total Mass 730.00 kg
Length 0.30 m
Diameter 4.10 m
Span 29.00 m
Shape Box + pan
Manufacturer SPXS
Bus Type Starlink V2M
Phase Status In Orbit
Owner/State SPXS/US

Large Constellations

Loading constellations...